Location: Marcé
(47.5801°N, 0.3280°W)
Time: 20:01:14
(UTC+01:00)

Tiros 1 despin weight - Pass Details

Date: 15 December 2021
Orbit: 592 x 641 km, 48.2° (Epoch: 16 January)

Event Time Altitude Azimuth Distance (km) Brightness Sun altitude
Rises 14:14:15 0° 284° (WNW) 2,850 ? 17.0°
Reaches altitude 10° 14:16:34 10° 281° (WNW) 1,939 ? 16.9°
Maximum altitude 14:20:58 65° 201° (SSW) 657 ? 16.6°
Drops below altitude 10° 14:25:19 10° 119° (ESE) 1,918 ? 16.4°
Sets 14:27:36 0° 117° (ESE) 2,817 ? 16.2°
